Hourly Data Report for June 02, 2021

TOBERMORY RCS
ONTARIO
Current Station Operator: ECCC - MSC

45°14'00.000" N
81°38'00.000" W
213.50 m
6128330
71767
TTR

Download Data

Hourly Data (June 2021)
Hourly Data Report for June 2, 2021
TIME
LST
Temp Definition
°C
Dew Point Definition
°C
Rel Hum Definition
%
Precip. Amount Definition
mm

Wind Dir Definition
10's deg

Wind Spd Definition
km/h
Visibility Definition
km
Stn Press Definition
kPa
Hmdx Definition


Wind Chill Definition


Weather Definition


00:00 7.4 6.6 94 0.0 15 2   99.56     LegendNANA
01:00 7.5 6.8 96 0.0 15 6   99.55     LegendNANA
02:00 8.4 7.8 96 0.0 15 6   99.52     LegendNANA
03:00 7.8 6.8 93 0.0 13 3   99.49     LegendNANA
04:00 8.8 7.7 93 0.0 12 4   99.49     LegendNANA
05:00 8.9 7.8 93 0.0 13 6   99.49     LegendNANA
06:00 11.2 9.7 91 0.0 11 4   99.50     LegendNANA
07:00 14.2 9.5 74 0.0 13 9   99.45     LegendNANA
08:00 15.6 9.2 65 0.0 35 6   99.47     LegendNANA
09:00 17.6 8.2 54 0.0 19 10   99.45     LegendNANA
10:00 17.7 7.9 53 0.0 19 12   99.44     LegendNANA
11:00 17.7 8.0 53 0.0 18 12   99.43     LegendNANA
12:00
13:00
14:00
15:00
16:00 22.7 7.9 39 0.0 22 8   99.14     LegendNANA
17:00 21.7 8.0 41 0.0 21 6   99.09     LegendNANA
18:00 20.6 4.9 36 0.0 17 6   99.03     LegendNANA
19:00 18.9 4.8 39 0.0 17 4   99.01     LegendNANA
20:00 16.7 5.3 47 0.0 15 4   98.99     LegendNANA
21:00 15.5 6.6 55 0.0 16 3   98.99     LegendNANA
22:00 15.3 7.7 60 0.0 16 4   98.98     LegendNANA
23:00 15.3 9.2 67 0.0 19 9   98.93     LegendNANA

Notes on Data Quality.

Legend

  • E = Estimated
  • M = Missing
  • NA = Not Available*
  • [empty] = Indicates an unobserved value
Date modified: